GFSGL_prec_cthk_336.txt.gz
RH
60 62 65 70 68 66 58 51 41 31 34 54 46 49 49 45 55 50 50 55 57 59 62 67 75 77 72 84 86 71 64 58 62 74 73 81 76 70 71 72 77 72 61
55 68 70 74 71 70 64 58 53 38 34 40 45 45 44 44 51 53 52 58 56 59 59 65 74 72 88 78 71 56 53 55 63 62 62 63 68 69 66 70 75 77 73
61 68 80 85 74 88 89 70 62 49 44 48 52 57 58 64 66 70 59 65 73 65 65 62 74 79 76 69 61 52 59 62 62 58 61 58 57 58 59 63 68 79 77
60 69 80 85 85 86 93 95 83 67 64 69 82 73 71 81 92 87 76 75 75 70 66 63 67 71 71 69 64 65 61 61 61 60 53 53 54 55 50 48 52 60 61
62 65 71 78 72 98 93 97 93 86 80 86 93 93 87 87 84 86 83 82 81 79 76 72 64 64 70 69 66 63 59 60 60 58 52 47 43 45 46 46 46 48 50
54 62 74 77 66 70 73 81 76 89 92 84 81 91 89 81 84 83 85 84 83 83 78 75 74 64 68 70 65 64 62 59 56 54 46 38 36 36 35 33 34 35 32
60 65 74 76 71 73 68 57 56 64 81 85 73 81 84 80 85 87 84 82 73 73 76 77 74 70 59 64 62 59 56 52 54 50 43 37 34 30 26 26 28 27 25
67 74 73 74 70 69 67 65 60 58 66 64 69 70 73 73 75 76 76 71 68 67 74 81 78 79 72 64 58 53 51 51 48 45 42 37 32 31 32 31 27 27 24
71 69 66 62 64 63 63 65 66 66 66 68 69 72 72 71 73 72 65 59 53 60 71 86 84 82 75 68 63 59 54 51 44 40 39 35 31 30 29 28 25 25 22
64 64 65 67 66 67 65 68 65 64 65 72 75 74 73 69 62 58 54 52 51 52 50 53 55 66 76 65 59 54 46 45 44 44 36 29 26 22 19 21 23 30 32
64 66 66 61 59 59 60 53 51 57 64 65 66 64 59 61 65 64 61 57 55 55 54 53 52 51 52 51 48 48 46 43 39 33 27 23 22 22 22 24 27 37 38
63 59 55 61 63 58 55 54 55 60 60 61 63 65 64 66 66 65 62 62 60 58 60 60 54 50 48 47 42 38 34 31 27 25 24 23 23 26 27 28 33 37 40
72 67 62 57 57 56 54 54 55 57 57 57 56 55 55 55 58 55 54 52 49 49 45 42 39 33 31 30 27 26 28 29 30 32 32 31 34 36 37 36 34 35 38
76 71 63 59 57 53 55 58 56 53 46 43 44 45 49 52 51 47 45 44 42 36 29 28 24 22 23 24 24 28 31 35 37 39 42 40 35 35 39 40 41 40 42
69 66 62 58 52 49 49 46 44 42 40 36 33 32 33 37 38 39 38 35 29 27 25 24 23 25 29 32 38 39 36 33 33 37 40 38 38 40 38 39 40 40 42
62 59 54 52 51 49 46 44 43 40 38 36 35 34 32 30 29 30 31 31 30 31 31 32 32 36 41 41 40 39 38 36 33 29 30 35 38 39 40 39 38 48 47
60 56 52 46 47 47 47 48 48 47 46 44 43 43 42 40 40 39 39 38 36 38 40 42 43 42 42 42 41 39 38 37 37 39 37 33 33 36 41 42 43 44 45
52 47 48 55 55 52 52 50 48 49 50 49 47 46 44 42 41 42 42 43 44 45 46 45 43 44 43 42 44 44 43 44 42 43 43 44 40 36 44 49 52 51 49
50 54 53 47 48 47 47 48 46 46 47 48 48 47 46 49 48 47 48 50 48 46 45 45 41 42 44 46 50 50 49 48 48 48 48 49 49 46 46 47 48 51 50
50 50 50 49 48 49 47 45 45 46 48 49 53 51 54 57 57 54 55 54 48 48 48 46 47 50 50 53 54 52 53 54 57 57 56 60 60 57 53 53 54 52 52
59 61 56 54 53 51 52 53 51 52 50 50 56 62 63 62 61 59 61 54 49 50 49 51 53 55 56 58 59 62 64 67 70 72 74 77 77 75 67 62 58 56 56
63 57 53 50 50 54 54 54 54 56 65 59 73 70 72 76 67 60 59 59 53 51 49 52 58 62 66 69 74 78 80 80 78 73 74 78 81 87 80 71 67 63 61
50 48 48 50 52 53 53 54 53 53 59 72 78 78 80 82 76 67 65 61 54 51 51 53 64 74 78 80 82 83 84 80 76 83 84 89 98 98 88 78 73 69 67
45 49 50 53 53 50 51 53 49 55 64 68 72 77 82 80 78 67 68 66 58 59 59 62 67 76 78 82 83 85 87 86 84 89 92 96 94 92 89 81 76 74 71
48 54 52 52 53 51 53 54 57 60 61 70 76 78 85 77 74 76 79 76 67 68 66 61 62 66 72 76 78 81 82 87 90 91 90 90 90 87 84 80 78 76 72
58 60 60 61 59 54 57 63 63 66 70 74 78 82 82 83 84 79 76 65 61 61 62 67 68 65 66 68 70 70 69 66 69 74 77 78 79 82 83 81 82 79 76

GFSGL_prec_cthk_339.txt.gz
RH
44 48 51 51 52 62 69 73 71 70 65 51 44 45 50 51 58 56 54 68 67 75 74 74 79 75 73 78 81 75 79 92 82 76 72 70 64 64 67 68 65 66 75
44 47 52 61 73 79 81 85 82 86 81 74 48 50 52 54 59 63 65 59 63 69 75 75 76 71 76 75 79 74 72 73 64 64 66 65 63 62 62 61 59 59 64
46 50 56 64 69 79 79 75 71 80 98 88 64 59 63 69 66 57 60 64 72 74 79 83 79 77 76 81 85 84 76 71 67 66 67 68 66 67 63 59 49 49 55
51 52 57 61 70 74 73 60 59 81 94 97 76 56 66 67 67 69 75 71 79 81 78 75 74 71 68 69 72 76 78 74 70 68 65 60 59 60 58 56 49 47 49
54 53 56 60 66 64 65 55 46 65 88 93 88 81 85 91 85 85 88 92 95 90 85 82 84 81 77 76 72 72 74 74 68 64 61 58 56 56 54 48 43 40 40
61 62 59 56 55 58 59 55 55 56 65 78 88 90 89 86 81 80 89 89 86 83 79 78 76 77 76 75 73 67 61 60 59 57 53 49 51 50 45 36 31 27 25
54 54 53 50 56 63 60 55 55 57 66 65 70 83 81 74 71 77 81 75 78 81 82 81 70 67 66 68 72 69 67 58 48 56 53 54 52 52 46 36 33 33 30
48 53 59 57 57 53 54 59 57 59 61 64 70 74 77 74 71 69 68 71 72 71 73 68 66 71 69 74 78 76 70 66 60 56 57 56 52 50 47 41 39 36 29
62 64 63 58 50 51 52 55 58 62 67 63 64 68 70 70 68 64 66 67 66 61 53 51 65 62 62 72 76 76 83 74 70 66 58 52 51 50 46 39 33 28 24
68 64 62 59 59 59 61 59 59 59 59 59 61 65 71 70 62 58 56 52 51 51 52 50 50 51 50 48 48 56 69 66 59 55 48 45 42 39 37 33 29 28 28
66 64 65 63 59 54 52 50 47 46 51 52 58 61 59 61 66 66 61 60 60 59 57 55 54 52 55 55 51 47 42 40 42 44 44 43 41 34 28 29 33 35 35
70 61 59 57 58 56 53 52 50 50 51 50 51 56 59 61 64 64 62 59 55 51 50 48 45 45 45 43 40 38 42 41 39 38 37 35 34 32 31 30 32 36 37
63 62 62 61 62 55 57 55 53 54 53 49 46 46 45 44 46 48 47 45 42 41 38 34 30 28 27 28 29 31 31 30 30 32 31 32 31 32 32 31 31 34 36
67 62 59 58 54 59 56 57 51 48 47 43 41 42 41 41 43 43 43 41 36 31 25 24 25 27 31 32 31 32 33 31 30 31 32 32 37 39 42 38 36 37 41
66 67 68 64 55 53 51 49 48 46 43 40 36 33 31 32 33 32 30 29 29 29 28 30 31 34 34 36 39 41 42 41 39 35 34 32 31 30 37 42 42 43 43
68 67 64 58 53 52 48 47 47 45 43 42 42 42 42 43 41 39 38 36 36 36 36 36 37 40 41 40 39 39 41 40 39 37 36 35 34 36 33 30 36 41 43
66 57 51 52 52 49 48 50 49 49 49 49 48 47 46 45 44 41 40 40 42 42 42 43 42 40 40 35 36 35 36 36 37 40 38 36 35 35 35 34 32 33 37
52 50 52 52 52 49 46 45 43 42 45 45 46 46 45 44 43 44 45 46 47 46 43 44 44 43 42 43 42 43 44 45 44 44 43 41 42 43 42 43 43 42 42
47 48 50 47 42 40 41 41 42 41 40 40 41 40 40 41 42 44 47 46 47 45 45 43 43 44 45 46 46 48 49 49 49 49 50 50 51 52 51 52 53 51 51
50 50 49 47 47 47 46 42 42 43 43 42 43 46 47 49 52 54 56 57 53 52 46 46 45 39 42 47 51 51 53 54 54 56 57 57 61 62 63 64 67 66 64
60 57 58 56 46 45 49 51 47 47 46 47 49 54 54 61 61 67 69 64 61 56 54 54 48 42 49 55 58 62 62 64 67 69 72 74 74 72 72 72 74 76 77
60 57 48 42 42 45 49 48 47 48 48 47 49 55 61 61 62 73 78 73 66 62 60 58 51 46 58 64 69 73 77 78 79 81 82 80 78 80 78 84 90 90 86
42 41 42 43 45 48 45 44 45 46 47 50 57 61 61 63 65 70 74 70 72 66 69 61 57 58 64 66 74 78 80 82 82 84 86 84 85 83 87 88 91 94 91
41 45 46 48 48 44 42 43 44 46 54 55 56 59 61 65 70 75 77 78 76 74 71 60 60 61 62 63 64 67 66 64 67 71 74 76 79 81 83 85 80 78 83
43 47 47 47 48 49 46 46 53 56 59 58 61 64 70 69 72 75 76 73 71 67 54 51 53 52 54 61 66 65 65 65 64 63 64 63 62 67 70 71 73 77 84
45 47 49 52 52 54 55 56 61 65 63 62 61 61 60 62 65 63 61 63 65 65 60 58 57 60 61 62 64 66 70 73 75 77 78 78 78 77 77 76 74 78 86

GFSGL_prec_cthk_342.txt.gz
RH
46 46 46 49 54 52 54 63 76 77 89 78 75 75 68 55 54 58 62 71 69 73 70 76 74 78 80 77 85 86 75 73 75 77 81 86 86 76 70 65 64 62 59
49 50 49 47 54 58 66 73 70 64 54 48 69 74 83 74 65 59 63 67 66 67 67 73 74 78 77 78 84 80 79 76 74 78 71 74 69 69 66 64 62 58 54
50 48 48 47 56 66 72 81 68 56 49 51 66 69 83 92 72 65 62 72 70 63 62 72 80 84 81 78 82 82 79 85 81 80 73 65 67 66 64 62 59 57 54
50 50 53 54 63 67 73 75 58 53 50 54 71 76 88 91 81 73 77 78 77 73 73 76 83 87 89 84 83 82 80 80 76 75 70 66 63 65 65 64 65 59 54
64 61 55 62 68 76 74 55 56 51 50 51 56 71 86 83 90 84 87 94 91 91 86 88 84 86 89 87 86 84 80 78 75 72 77 75 66 57 57 57 58 58 54
69 76 75 78 81 66 59 58 57 52 54 52 59 72 79 78 85 88 82 93 90 87 89 88 86 85 83 83 80 80 76 74 71 64 60 56 55 59 42 43 46 48 47
81 84 75 69 66 61 63 61 53 51 56 52 56 67 77 80 77 83 90 87 87 84 77 81 82 82 82 80 71 68 66 58 58 60 59 58 57 53 49 50 44 45 46
79 67 65 66 64 67 61 57 50 50 50 53 56 61 68 73 74 79 78 78 78 76 74 72 73 68 67 69 74 72 71 79 79 73 62 63 65 64 65 60 51 48 45
75 73 69 74 71 68 60 53 51 50 50 53 58 63 65 71 74 72 70 65 62 63 62 62 58 58 67 69 67 66 70 78 78 74 81 75 69 66 60 56 55 56 52
73 73 75 77 69 61 58 53 50 52 53 54 55 59 63 66 67 67 67 62 58 59 59 59 58 55 54 52 50 49 47 48 54 53 53 53 61 60 58 55 54 52 46
76 74 76 81 68 61 55 47 47 50 49 47 48 51 52 56 60 63 64 62 60 56 54 53 52 52 54 55 53 48 46 47 48 48 47 46 49 52 50 46 44 41 39
79 74 84 73 62 55 47 49 49 53 50 49 55 53 54 56 56 58 57 55 50 47 44 39 35 32 32 31 33 35 37 39 44 46 48 48 47 49 50 47 44 40 38
81 82 76 69 63 56 57 57 55 58 56 52 56 52 49 48 47 45 44 42 39 34 31 30 30 30 30 31 31 34 35 34 34 33 32 31 31 30 30 32 36 40 38
78 81 76 68 60 59 61 57 58 53 47 47 48 48 47 47 46 43 36 31 28 28 27 31 32 32 33 36 38 41 41 39 37 35 35 34 33 30 28 26 27 30 36
82 77 72 67 63 69 63 59 53 47 43 41 39 38 37 37 35 35 34 34 35 34 35 36 36 36 37 38 38 36 36 37 40 39 37 35 34 34 31 30 30 29 29
83 80 74 73 66 61 58 53 49 47 44 44 44 43 43 42 40 38 36 37 39 39 39 37 37 37 37 38 38 36 36 36 37 37 37 36 37 37 35 33 32 32 31
86 76 76 67 62 59 55 49 48 49 45 41 42 41 39 39 40 39 43 43 44 43 41 41 38 38 39 39 38 39 39 42 42 42 41 41 39 39 39 40 40 39 40
74 70 63 58 55 52 51 49 44 38 38 41 40 39 40 38 37 37 37 37 39 39 39 39 39 42 43 36 35 41 44 44 45 45 46 46 46 45 44 46 46 46 47
66 59 55 51 48 45 42 41 41 40 39 40 38 36 37 38 41 43 44 44 46 47 47 45 46 46 43 37 38 45 48 50 49 50 51 50 50 50 50 52 53 52 54
60 56 52 50 49 50 50 48 44 43 42 41 39 38 40 44 45 49 50 52 57 54 55 56 56 54 49 42 47 52 54 57 56 56 56 56 56 57 59 61 63 66 66
60 61 59 57 58 51 45 44 44 43 42 48 45 43 46 47 50 50 52 54 61 59 58 57 59 57 47 50 54 59 63 63 67 67 69 71 74 76 77 76 76 73 68
64 59 53 45 41 42 41 41 41 44 46 45 43 46 50 54 55 55 57 59 62 60 61 60 63 59 55 56 58 62 62 68 72 74 78 79 80 80 79 79 79 75 70
44 39 40 41 44 45 42 39 42 44 43 44 45 49 51 54 56 57 59 65 69 69 69 68 62 51 48 48 50 55 57 57 55 55 58 61 64 67 67 70 72 72 70
38 40 42 42 42 39 38 39 43 46 48 50 51 51 52 58 60 60 60 61 61 61 59 58 49 50 53 52 51 53 56 57 61 68 71 72 71 71 72 71 72 72 73
40 43 42 43 44 47 50 49 51 54 56 57 56 55 53 55 53 55 57 56 52 54 58 61 61 66 70 69 62 61 65 70 70 67 66 69 74 76 78 78 77 78 80
42 45 45 45 47 48 50 51 54 54 58 57 57 57 58 58 58 57 58 60 62 63 65 67 70 74 78 76 79 73 72 76 75 75 72 68 66 62 63 67 69 71 74

GFSGL_prec_cthk_345.txt.gz
RH
54 56 55 48 48 49 51 53 61 68 74 69 62 53 48 59 77 83 65 63 60 65 70 71 68 70 76 75 79 77 79 81 86 85 84 79 77 73 70 68 64 63 62
44 54 55 57 57 58 62 60 64 73 59 60 61 53 44 53 75 85 92 74 64 61 62 67 69 73 73 75 81 88 87 80 80 77 77 75 76 73 75 74 72 72 69
44 46 54 54 60 71 68 63 78 84 72 60 56 49 47 55 81 87 93 92 82 74 70 72 69 73 72 74 81 88 91 86 89 89 83 79 78 78 75 72 69 69 68
40 45 50 59 62 71 77 72 85 88 73 57 48 49 51 63 74 96 99 93 88 89 82 82 74 76 85 84 83 85 93 92 93 94 84 80 78 76 69 67 65 66 69
47 51 57 64 72 75 77 89 89 63 66 54 46 46 50 58 67 80 86 87 94 92 94 90 88 91 91 89 86 85 93 90 88 82 81 81 80 75 72 67 62 61 62
43 51 60 73 81 98 96 91 83 64 60 52 44 43 45 50 58 67 77 85 89 91 90 93 93 90 92 90 90 87 89 86 82 80 75 74 73 71 70 64 62 55 47
54 61 68 74 69 68 82 81 72 65 59 51 43 46 47 50 57 62 68 80 86 85 85 90 86 89 86 87 83 81 84 81 74 70 66 60 58 57 55 55 53 50 49
53 58 65 75 71 74 90 83 73 66 57 48 49 47 50 53 57 62 69 74 82 87 82 83 84 85 84 79 68 70 71 72 72 68 68 64 60 56 54 53 52 53 52
52 59 66 71 78 81 81 76 76 64 56 52 51 50 53 54 56 58 65 68 69 74 75 78 78 69 62 57 65 69 69 71 73 73 72 78 79 69 62 67 73 69 63
44 54 60 70 75 85 83 78 72 65 54 55 49 51 55 54 58 58 59 59 59 61 67 66 63 62 63 62 62 59 55 56 53 51 60 57 62 69 68 67 70 76 73
37 58 79 87 83 94 94 86 70 60 57 50 52 52 49 47 51 54 56 56 56 58 60 61 60 56 55 55 53 51 48 46 45 46 45 46 48 50 52 55 54 52 55
49 62 96 98 92 98 87 80 66 58 57 55 52 50 54 51 52 57 57 55 52 47 43 39 37 34 33 31 32 33 37 38 44 46 49 49 47 47 45 45 47 49 51
56 86 94 85 87 84 73 67 63 63 60 59 57 53 50 50 52 55 52 49 41 35 32 31 31 32 31 32 34 36 36 37 38 38 38 37 36 36 35 35 34 33 37
86 86 88 80 81 74 71 68 65 63 63 58 52 50 50 50 50 47 38 34 33 33 33 33 34 36 38 37 38 39 39 38 36 34 34 34 35 34 34 32 30 29 27
79 87 85 76 81 77 71 62 60 55 58 51 48 41 37 38 38 37 38 37 38 38 39 39 39 39 38 39 40 39 37 35 34 34 36 36 36 35 34 34 34 33 32
88 85 84 81 78 74 66 60 62 63 53 48 45 41 42 43 39 36 34 34 34 36 38 36 34 34 34 35 34 32 32 36 38 39 40 41 40 39 39 39 38 37 36
88 90 88 83 77 73 68 66 58 57 53 48 46 41 39 37 36 36 37 38 40 40 40 39 36 34 35 36 34 30 31 36 41 45 47 47 46 46 45 45 44 44 43
96 93 88 83 79 72 66 61 57 51 46 42 38 39 42 41 39 39 40 40 41 42 42 42 42 41 41 41 37 37 44 49 50 50 53 53 54 55 54 53 52 50 51
92 86 81 77 71 65 58 51 46 42 40 41 42 40 42 42 40 39 42 43 44 45 45 46 46 47 46 40 37 45 50 54 57 62 63 63 62 61 60 59 59 59 61
76 73 70 65 60 54 49 47 48 46 44 44 43 42 39 38 40 40 44 46 48 48 50 48 48 48 51 43 43 49 55 60 63 70 74 76 73 74 71 73 72 73 72
63 61 61 57 53 51 49 45 45 45 43 40 40 42 41 42 44 45 49 49 50 52 56 56 59 57 56 47 47 50 52 56 58 64 68 75 81 81 83 83 83 81 77
64 64 62 57 50 43 39 38 37 39 41 43 42 41 41 43 47 50 53 53 55 61 59 61 61 57 46 41 41 41 43 43 45 47 53 60 61 61 65 67 66 65 63
54 49 41 38 39 39 33 32 34 37 40 41 42 44 45 46 49 53 55 57 58 60 58 57 56 54 47 46 50 54 53 51 52 54 56 59 62 68 72 73 73 74 74
39 41 38 36 38 39 38 38 38 41 43 46 49 51 52 49 46 50 54 55 57 54 50 50 56 58 56 62 67 66 61 66 68 69 71 70 67 63 59 60 65 71 72
37 43 43 42 43 44 43 42 44 48 51 51 53 53 51 52 54 54 53 55 56 60 61 58 60 66 70 71 74 70 69 73 79 81 72 67 67 69 72 69 65 61 59
41 40 42 45 43 44 46 46 46 45 49 53 54 59 57 58 59 59 60 65 70 73 74 75 76 74 74 76 69 64 60 70 75 77 73 69 64 64 65 66 70 71 68